Weather reports worldwide

Advertisment
Ploce, Croatia (14462): temperature & dewpoint: 20.05.2020 13:00:00 - 26.05.2020 13:00:00 (CEST)Ploce, Croatia (14462): wind speed: 20.05.2020 13:00:00 - 26.05.2020 13:00:00 (CEST)Ploce, Croatia (14462): wind direction: 20.05.2020 13:00:00 - 26.05.2020 13:00:00 (CEST)Ploce, Croatia (14462): reduced air pressure: 20.05.2020 13:00:00 - 26.05.2020 13:00:00 (CEST)Ploce, Croatia (14462): visibility: 20.05.2020 13:00:00 - 26.05.2020 13:00:00 (CEST)
Date & Time tt [°C] td [°C] ff [km/h] ff [kn] dd ppp [hPa] vv [km]
26.05.2020 13:00:00 - - - - - - -
26.05.2020 12:00:00 21,0 4,4 22 12 N 1022,3 30
26.05.2020 11:00:00 19,6 4,9 18 10 NNW 1022,8 30
26.05.2020 10:00:00 20,2 5,3 22 12 NNW 1022,4 30
26.05.2020 09:00:00 18,6 3,9 14 8 N 1022,6 30
26.05.2020 08:00:00 18,4 8,3 18 10 N 1022,8 30
26.05.2020 07:00:00 16,2 4,3 7 4 N 1023,4 -
26.05.2020 06:00:00 15,0 4,4 - - - 1023,1 -
26.05.2020 05:00:00 15,3 3,8 14 8 NNE 1022,8 -
26.05.2020 04:00:00 - - - - - - -
26.05.2020 03:00:00 - - - - - - -
26.05.2020 02:00:00 16,0 5,1 11 6 N 1023,1 -
26.05.2020 01:00:00 - - - - - - -
26.05.2020 00:00:00 - - - - - - -
25.05.2020 23:00:00 17,0 7,1 14 8 NNE 1022,9 -
25.05.2020 22:00:00 18,5 8,0 25 14 NNE 1022,6 20
25.05.2020 21:00:00 19,3 7,9 29 16 NNW 1021,9 30
25.05.2020 20:00:00 20,5 8,4 25 14 NNW 1021,2 30
25.05.2020 19:00:00 20,7 7,7 18 10 NNW 1021,2 -
25.05.2020 18:00:00 21,6 8,5 25 14 NNW 1021,3 -
25.05.2020 17:00:00 22,0 6,3 22 12 NNW 1021,7 -
25.05.2020 16:00:00 22,3 6,2 25 14 NNW 1022,1 -
25.05.2020 15:00:00 23,7 3,4 25 14 W 1022,1 30
25.05.2020 14:00:00 24,2 3,1 18 10 NNE 1022,6 30
25.05.2020 13:00:00 24,2 1,5 18 10 NNE 1023,1 30
25.05.2020 12:00:00 23,6 3,8 18 10 NNE 1023,9 30
25.05.2020 11:00:00 22,8 3,3 22 12 NNE 1024,2 30
25.05.2020 10:00:00 22,0 3,7 18 10 NNE 1024,6 30
25.05.2020 09:00:00 20,8 5,4 18 10 NNE 1025,0 30
25.05.2020 08:00:00 19,2 4,5 18 10 NNE 1024,8 30
25.05.2020 07:00:00 17,5 3,4 18 10 N 1025,0 -
25.05.2020 06:00:00 16,6 3,0 11 6 N 1024,9 -
25.05.2020 05:00:00 16,1 2,5 - - - 1024,9 -
25.05.2020 04:00:00 - - - - - - -
25.05.2020 03:00:00 - - - - - - -
25.05.2020 02:00:00 16,5 5,2 - - - 1024,4 -
25.05.2020 01:00:00 - - - - - - -
25.05.2020 00:00:00 - - - - - - -
24.05.2020 23:00:00 17,8 5,4 14 8 NNE 1024,8 -
24.05.2020 22:00:00 18,7 5,6 18 10 NNE 1024,1 30
24.05.2020 21:00:00 19,0 6,8 14 8 NNE 1023,7 30
24.05.2020 20:00:00 20,4 7,8 14 8 NNE 1023,2 30
24.05.2020 19:00:00 22,0 8,6 14 8 NNE 1023,2 -
24.05.2020 18:00:00 22,7 8,5 - - - 1023,0 -
24.05.2020 17:00:00 22,8 8,9 11 6 NNE 1023,1 -
24.05.2020 16:00:00 22,1 11,3 - - - 1023,6 -
24.05.2020 15:00:00 20,3 11,5 22 12 NNE 1023,3 30
24.05.2020 14:00:00 18,9 12,1 25 14 NNE 1023,3 30
24.05.2020 13:00:00 20,0 11,9 18 10 NNE 1023,7 30
24.05.2020 12:00:00 20,8 12,3 14 8 NNE 1023,3 30
24.05.2020 11:00:00 20,4 14,4 18 10 NNE 1023,2 30
24.05.2020 10:00:00 21,7 12,6 11 6 NNE 1022,7 30
24.05.2020 09:00:00 20,0 13,2 7 4 ENE 1021,9 30
24.05.2020 08:00:00 19,0 13,0 4 2 ENE 1021,9 30
24.05.2020 07:00:00 18,4 13,5 7 4 SSE 1022,0 -
24.05.2020 06:00:00 18,0 12,3 4 2 NNW 1021,5 -
24.05.2020 05:00:00 17,6 12,8 4 2 NNW 1021,5 -
24.05.2020 04:00:00 - - - - - - -
24.05.2020 03:00:00 - - - - - - -
24.05.2020 02:00:00 17,6 14,0 4 2 ESE 1022,2 -
24.05.2020 01:00:00 - - - - - - -
24.05.2020 00:00:00 - - - - - - -
23.05.2020 23:00:00 18,1 14,1 4 2 ENE 1022,2 -
23.05.2020 22:00:00 20,0 14,3 0 0 N 1022,0 30
23.05.2020 21:00:00 20,3 14,7 7 4 E 1021,2 30
23.05.2020 20:00:00 22,9 9,8 14 8 SW 1021,2 30
23.05.2020 19:00:00 23,4 8,7 7 4 SSE 1021,6 -
23.05.2020 18:00:00 24,5 10,1 4 2 SSE 1021,5 -
23.05.2020 17:00:00 - - - - - - -
23.05.2020 16:00:00 - - - - - - -
23.05.2020 15:00:00 23,2 12,1 14 8 WSW 1022,8 30
23.05.2020 14:00:00 23,7 11,1 11 6 NNW 1022,8 30
23.05.2020 13:00:00 22,3 13,5 11 6 SSE 1023,1 30
23.05.2020 12:00:00 24,3 8,1 14 8 NW 1023,4 30
23.05.2020 11:00:00 21,8 10,9 11 6 SW 1023,9 30
23.05.2020 10:00:00 21,3 11,5 7 4 SSW 1023,9 30
23.05.2020 09:00:00 20,1 10,6 4 2 SSE 1023,9 30
23.05.2020 08:00:00 17,8 10,7 7 4 E 1023,5 30
23.05.2020 07:00:00 16,2 10,6 7 4 E 1024,0 -
23.05.2020 06:00:00 13,1 10,9 4 2 ENE 1023,8 -
23.05.2020 05:00:00 13,7 11,1 4 2 SE 1023,6 -
23.05.2020 04:00:00 - - - - - - -
23.05.2020 03:00:00 - - - - - - -
23.05.2020 02:00:00 14,9 11,5 0 0 N 1023,4 -
23.05.2020 01:00:00 - - - - - - -
23.05.2020 00:00:00 - - - - - - -
22.05.2020 23:00:00 17,6 11,9 4 2 SE 1023,6 -
22.05.2020 22:00:00 20,0 10,5 18 10 NNW 1023,0 30
22.05.2020 21:00:00 19,9 10,2 14 8 NNW 1022,4 30
22.05.2020 20:00:00 20,9 10,4 7 4 NW 1021,8 30
22.05.2020 19:00:00 22,2 10,1 18 10 W 1021,6 -
22.05.2020 18:00:00 23,0 9,1 14 8 W 1021,4 -
22.05.2020 17:00:00 22,9 9,4 14 8 WNW 1021,4 -
22.05.2020 16:00:00 24,0 5,4 18 10 W 1021,8 -
22.05.2020 15:00:00 23,8 4,8 22 12 W 1021,7 30
22.05.2020 14:00:00 23,8 5,0 25 14 W 1021,7 30
22.05.2020 13:00:00 24,0 3,3 18 10 WSW 1021,7 30
22.05.2020 12:00:00 23,0 3,1 18 10 SW 1021,9 30
22.05.2020 11:00:00 22,1 2,7 18 10 SSW 1021,6 30
22.05.2020 10:00:00 21,2 3,3 14 8 SSW 1021,5 30
22.05.2020 09:00:00 20,9 2,2 7 4 NNW 1021,6 30
22.05.2020 08:00:00 18,7 5,1 4 2 ESE 1021,0 30
22.05.2020 07:00:00 17,5 3,4 7 4 NNW 1021,3 -
22.05.2020 06:00:00 15,0 3,2 7 4 NNW 1021,0 -
22.05.2020 05:00:00 14,9 3,1 4 2 NW 1020,5 -
22.05.2020 04:00:00 - - - - - - -
22.05.2020 03:00:00 - - - - - - -
22.05.2020 02:00:00 16,8 2,5 - - - 1019,7 -
22.05.2020 01:00:00 - - - - - - -
22.05.2020 00:00:00 - - - - - - -
21.05.2020 23:00:00 18,5 2,4 25 14 NNE 1018,2 -
21.05.2020 22:00:00 19,0 3,2 18 10 NNE 1017,5 30
21.05.2020 21:00:00 19,8 3,0 11 6 NNE 1016,5 30
21.05.2020 20:00:00 21,0 3,6 25 14 NNE 1014,9 30
21.05.2020 19:00:00 22,4 3,0 22 12 NNE 1014,0 -
21.05.2020 18:00:00 24,2 3,5 - - - 1013,0 -
21.05.2020 17:00:00 24,7 3,4 22 12 NNE 1012,6 -
21.05.2020 16:00:00 - - - - - - -
21.05.2020 15:00:00 25,0 4,6 29 16 NNE 1012,5 30
21.05.2020 14:00:00 24,5 3,5 29 16 NNE 1012,5 30
21.05.2020 13:00:00 24,2 4,7 29 16 NNE 1012,8 30
21.05.2020 12:00:00 24,0 4,9 18 10 NNE 1012,8 30
21.05.2020 11:00:00 22,8 6,2 25 14 NNE 1012,9 30
21.05.2020 10:00:00 22,6 6,4 22 12 NNE 1012,7 30
21.05.2020 09:00:00 21,5 5,2 29 16 NNE 1012,5 30
21.05.2020 08:00:00 19,8 6,0 25 14 NNE 1011,4 30
21.05.2020 07:00:00 18,6 4,8 22 12 NNE 1011,5 -
21.05.2020 06:00:00 - - - - - - -
21.05.2020 05:00:00 - - - - - - -
21.05.2020 04:00:00 - - - - - - -
21.05.2020 03:00:00 - - - - - - -
21.05.2020 02:00:00 - - - - - - -
21.05.2020 01:00:00 - - - - - - -
21.05.2020 00:00:00 - - - - - - -
20.05.2020 23:00:00 21,2 10,4 - - - 1008,5 -
20.05.2020 22:00:00 21,5 11,2 18 10 NNE 1008,3 20
20.05.2020 21:00:00 22,0 11,7 18 10 NNE 1007,7 20
20.05.2020 20:00:00 22,4 11,6 25 14 NNE 1007,2 20
20.05.2020 19:00:00 23,8 14,6 14 8 NNE 1006,8 -
20.05.2020 18:00:00 23,6 14,1 7 4 NNW 1006,6 -
20.05.2020 17:00:00 23,8 13,7 4 2 SSW 1006,7 -
20.05.2020 16:00:00 - - - - - - -
20.05.2020 15:00:00 24,2 16,4 11 6 SSW 1006,6 20
20.05.2020 14:00:00 23,7 16,1 11 6 SSW 1006,6 20
20.05.2020 13:00:00 23,7 16,6 11 6 SSW 1006,7 20

tt = temperature
td = dewpoint
ff = wind speed
dd = wind direction
ppp = reduced air pressure
vv = visibility

Next stations